Location: Burgerwiesen
(48.6500°N, 15.6167°E)
Time: 09:24:03
(UTC+00:00)

Cosmos 1934 Rocket - Pass Details

Date: 09 April 2020
Orbit: 937 x 1000 km, 83.0° (Epoch: 24 May)

Event Time Altitude Azimuth Distance (km) Brightness Sun altitude
Rises 20:17:29 0° 354° (N) 3,699 7.8 -23.2°
Reaches altitude 10° 20:20:08 10° 0° (N) 2,738 6.9 -23.5°
Maximum altitude 20:26:10 47° 74° (ENE) 1,257 4.3 -24.2°
Enters shadow 20:26:57 45° 96° (E) 1,293 4.3 -24.3°
